Flag for Canada Weather past 2 weeks in Yorkton, Saskatchewan, Canada

Now
61 °F

Mostly cloudy.


Feels Like: 61 °F
Forecast: 54 / 71 °F
Wind: 3 mph from South

Location: Yorkton

Current Time: Jul 25, 2014 at 3:37:28 AM

Latest Report: Jul 25, 2014 at 3:00 AM


Visibility: 9 mi

Pressure: 29.71 "Hg

Humidity: 94%

Dew point: 59 °F

Location of YorktonLocation

Historic Weather in Yorkton — Graph

°F

Yorkton temperature yesterday

Maximum temperature yesterday: 75 °F (at 4:00 PM)
Minimum temperature yesterday: 61 °F (at 5:00 AM)
Average temperature yesterday: 67 °F

Past Weeks' High & Low Weather Summary

 TemperatureHumidityPressure
High81 °F (Jul 17, 3:00 PM)100% (Jul 15, 4:48 AM)30.39 "Hg (Jul 15, 4:48 AM)
Low48 °F (Jul 14, 3:00 AM)34% (Jul 16, 2:00 PM)29.49 "Hg (Jul 18, 6:00 AM)
Average65 °F70%29.93 "Hg
* Reported Jul 10 2:00 AM — Jul 25 2:00 AM, Yorkton, Weather by CustomWeather, © 2014

Note: Actual official high and low records may vary slightly from our data, if they occured in-between our weather recording intervals... More about our weather records

Advertising

Yorkton weather history for previous 24 hours

 ConditionsComfort  
Time TempWeatherWind HumidityBarometerVisibility
2:00 AM
Jul 25
61 °FPassing clouds.5 mph94%29.71 "Hg9 mi
1:00 AM61 °FClear.5 mph94%29.73 "Hg9 mi
12:00 AM61 °FPassing clouds.12 mph94%29.75 "Hg9 mi
11:00 PM
Jul 24
61 °FRain. Mostly cloudy.20 mph94%29.69 "Hg7 mi
10:55 PM61 °FRain. Fog.17 mph94%29.70 "Hg6 mi
10:03 PM63 °FThundershowers. Fog.14 mph88%29.77 "Hg5 mi
10:00 PM63 °FThunderstorms. Fog.18 mph88%29.78 "Hg4 mi
9:57 PM63 °FThunderstorms. Fog.21 mph94%29.78 "Hg3 mi
9:00 PM68 °FLight rain. Mostly cloudy.8 mph83%29.77 "Hg9 mi
8:00 PM68 °FPassing clouds.7 mph78%29.73 "Hg9 mi
7:00 PM70 °FSunny.13 mph73%29.71 "Hg9 mi
6:00 PM75 °FPassing clouds.20 mph61%29.72 "Hg9 mi
5:00 PM75 °FMore clouds than sun.15 mph65%29.74 "Hg9 mi
4:00 PM75 °FPartly sunny.13 mph61%29.79 "Hg9 mi
3:00 PM73 °FPartly sunny.10 mph69%29.81 "Hg9 mi
2:00 PM72 °FPartly sunny.9 mph69%29.83 "Hg9 mi
1:04 PM70 °FBroken clouds.17 mph73%29.83 "Hg9 mi
12:52 PM70 °FScattered clouds.16 mph73%29.83 "Hg9 mi
12:00 PM70 °FPartly sunny.14 mph69%29.86 "Hg9 mi
11:00 AM68 °FPartly sunny.12 mph78%29.86 "Hg9 mi
10:00 AM68 °FSunny.13 mph73%29.86 "Hg9 mi
9:00 AM66 °FSunny.17 mph78%29.87 "Hg9 mi
8:00 AM64 °FSunny.17 mph83%29.91 "Hg9 mi
7:00 AM64 °FMostly cloudy.14 mph78%29.95 "Hg9 mi
6:00 AM63 °FPassing clouds.9 mph83%29.96 "Hg9 mi
5:00 AM61 °FClear.10 mph88%29.98 "Hg9 mi
4:00 AM63 °FPassing clouds.12 mph77%29.99 "Hg9 mi
3:00 AM63 °FPassing clouds.12 mph77%30.01 "Hg9 mi
Weather by CustomWeather, © 2014

See weather overviewHow to use our weather pages